カタログに戻る

COBE DEB

運用中SSO
NORAD 20324·DEBRIS·🇺🇸 United States

打ち上げ Nov 18, 1989 から Vandenberg Space Force Base

Loading…

次のパス (今後24時間)

TLE

最新Source: Space-Track

元期: Sep 13, 2026, 19:17 UTC

1 20324U 89089C   26256.80351023  .00000479  00000-0  24130-3 0  9991
2 20324  98.6989 265.6066 0010625 242.7984 290.1228 14.20931881898111

AllMySatでCOBE DEBをリアルタイム追跡

Download on the App Store